Weather History for KHOP - December, 2012

Change the Weather History Date:

Sunday, December 9, 2012

  Actual Average Record
Temperature  
Mean Temperature 58 °F -  
Max Temperature 64 °F 48 °F 69 °F (2007)
Min Temperature 53 °F 32 °F 14 °F (2005)
Degree Days  
Heating Degree Days 6    
Growing Degree Days 8 (Base 50)    
Moisture  
Dew Point 59 °F    
Average Humidity 100    
Maximum Humidity 100    
Minimum Humidity 99    
Precipitation  
Precipitation 1.36 in - - ()
Sea Level Pressure  
Sea Level Pressure 29.84 in    
Wind  
Wind Speed 7 mph (South)    
Max Wind Speed 18 mph    
Max Gust Speed 24 mph    
Visibility 7 miles    
Events Rain , Thunderstorm    
Averages and records for this station are not official NWS values.
T = Trace of Precipitation, MM = Missing Value Source: NWS Daily Summary

Daily Weather History Graph

Daily Weather History Graph

Search for Another Location

Airport or City:

Trip Planner

Search our weather history database for the weather conditions in past years. The results will help you decide how hot, cold, wet, or windy it might be!

Date:

Astronomy

Dec. 09, 2012 Rise Set
Actual Time 6:51 AM CST 4:34 PM CST
Civil Twilight 6:22 AM CST 5:02 PM CST
Nautical Twilight 5:50 AM CST 5:35 PM CST
Astronomical Twilight 5:18 AM CST 6:06 PM CST
Moon 2:28 AM CST (12/9) 1:36 PM CST (12/9)
Length of Visible Light 10h 40m
Length of Day
9h 43m
Waning Crescent, 18% of the Moon is Illuminated
Dec 9
Waning Crescent
Dec 13
New
Dec 19
First Quarter
Dec 28
Full
Jan 4
Last Quarter

Hourly Weather History & Observations

Time (CST) Temp. Dew Point Humidity Pressure Visibility Wind Dir Wind Speed Gust Speed Precip Events Conditions
12:29 AM 53.6 °F 53.6 °F 100% 29.95 in 6.0 mi East 4.6 mph - N/A   Overcast
12:54 AM 53.6 °F 53.6 °F 100% 29.94 in 6.0 mi ESE 6.9 mph - N/A   Overcast
12:55 AM 53.6 °F 53.6 °F 100% 29.94 in 6.0 mi ESE 6.9 mph - N/A   Overcast
12:59 AM 53.6 °F 53.6 °F 100% 29.94 in 6.0 mi ESE 6.9 mph - N/A   Mostly Cloudy
1:11 AM 53.6 °F 53.6 °F 100% 29.94 in 5.0 mi ESE 5.8 mph - N/A   Mostly Cloudy
1:16 AM 53.6 °F 53.6 °F 100% 29.94 in 5.0 mi ESE 6.9 mph - N/A   Mostly Cloudy
1:22 AM 53.6 °F 53.6 °F 100% 29.94 in 5.0 mi East 5.8 mph - N/A   Mostly Cloudy
1:24 AM 53.6 °F 53.6 °F 100% 29.94 in 5.0 mi ESE 5.8 mph - N/A   Mostly Cloudy
1:36 AM 53.6 °F 53.6 °F 100% 29.93 in 5.0 mi ESE 8.1 mph - N/A   Overcast
1:39 AM 53.6 °F 53.6 °F 100% 29.93 in 5.0 mi ESE 6.9 mph - N/A   Overcast
1:41 AM 53.6 °F 53.6 °F 100% 29.93 in 5.0 mi ESE 6.9 mph - N/A   Overcast
1:44 AM 53.6 °F 53.6 °F 100% 29.93 in 6.0 mi ESE 8.1 mph - N/A   Overcast
1:50 AM 53.6 °F 53.6 °F 100% 29.93 in 6.0 mi ESE 8.1 mph - N/A   Overcast
1:55 AM 54.0 °F 54.0 °F 100% 29.92 in 6.0 mi ESE 8.1 mph - N/A   Overcast
2:07 AM 53.6 °F 53.6 °F 100% 29.93 in 5.0 mi ESE 6.9 mph - N/A   Overcast
2:23 AM 53.6 °F 53.6 °F 100% 29.92 in 5.0 mi East 3.5 mph - N/A   Overcast
2:27 AM 53.6 °F 53.6 °F 100% 29.92 in 5.0 mi East 3.5 mph - N/A   Overcast
2:35 AM 53.6 °F 53.6 °F 100% 29.92 in 5.0 mi ESE 4.6 mph - N/A   Overcast
2:55 AM 54.5 °F 54.5 °F 100% 29.91 in 4.0 mi East 5.8 mph - N/A   Overcast
2:58 AM 55.4 °F 55.4 °F 100% 29.91 in 4.0 mi East 6.9 mph - N/A   Overcast
3:55 AM 55.8 °F 55.8 °F 100% 29.91 in 4.0 mi ESE 5.8 mph - N/A   Overcast
4:03 AM 55.4 °F 55.4 °F 100% 29.90 in 4.0 mi ESE 6.9 mph - N/A   Light Drizzle
4:31 AM 57.2 °F 57.2 °F 100% 29.90 in 4.0 mi SE 5.8 mph - N/A Rain Light Rain
4:40 AM 57.2 °F 57.2 °F 100% 29.88 in 4.0 mi SE 9.2 mph - N/A Rain Light Rain
4:45 AM 57.2 °F 57.2 °F 100% 29.88 in 5.0 mi SE 8.1 mph - N/A   Drizzle
4:50 AM 57.2 °F 57.2 °F 100% 29.88 in 5.0 mi SE 9.2 mph - N/A   Light Drizzle
4:55 AM 57.2 °F 57.2 °F 100% 29.89 in 5.0 mi SE 10.4 mph - 0.04 in Rain Light Rain
5:01 AM 57.2 °F 57.2 °F 100% 29.90 in 4.0 mi SSE 6.9 mph - N/A Rain , Thunderstorm Light Thunderstorms and Rain
5:07 AM 57.2 °F 57.2 °F 100% 29.89 in 3.0 mi SE 5.8 mph - N/A Rain , Thunderstorm Thunderstorms and Rain
5:08 AM 57.2 °F 57.2 °F 100% 29.89 in 2.5 mi SE 5.8 mph - N/A Rain , Thunderstorm Thunderstorms and Rain
5:21 AM 57.2 °F 57.2 °F 100% 29.91 in 1.8 mi South 5.8 mph - N/A Rain , Thunderstorm Heavy Thunderstorms and Rain
5:22 AM 57.2 °F 57.2 °F 100% 29.91 in 1.8 mi South 4.6 mph - N/A Rain , Thunderstorm Heavy Thunderstorms and Rain
5:26 AM 57.2 °F 57.2 °F 100% 29.92 in 1.0 mi Variable 5.8 mph - N/A Rain , Thunderstorm Heavy Thunderstorms and Rain
5:31 AM 57.2 °F 57.2 °F 100% 29.91 in 1.0 mi SSW 6.9 mph - N/A Rain , Thunderstorm Heavy Thunderstorms and Rain
5:32 AM 57.2 °F 57.2 °F 100% 29.90 in 1.2 mi South 4.6 mph - N/A Rain , Thunderstorm Thunderstorms and Rain
5:35 AM 57.2 °F 57.2 °F 100% 29.90 in 1.5 mi South 4.6 mph - N/A Rain , Thunderstorm Thunderstorms and Rain
5:37 AM 57.2 °F 57.2 °F 100% 29.90 in 2.0 mi South 3.5 mph - N/A Rain , Thunderstorm Thunderstorms and Rain
5:39 AM 57.2 °F 57.2 °F 100% 29.90 in 3.0 mi Calm Calm - N/A Rain , Thunderstorm Light Rain
5:40 AM 57.2 °F 57.2 °F 100% 29.90 in 3.0 mi Calm Calm - N/A Rain , Thunderstorm Light Rain
5:45 AM 57.2 °F 57.2 °F 100% 29.89 in 5.0 mi Calm Calm - N/A Rain , Thunderstorm Light Rain
5:52 AM 57.2 °F 57.2 °F 100% 29.90 in 5.0 mi SE 3.5 mph - N/A   Mostly Cloudy
5:54 AM 57.2 °F 57.2 °F 100% 29.90 in 5.0 mi SSE 5.8 mph - N/A   Mostly Cloudy
5:55 AM 57.7 °F 57.7 °F 100% 29.90 in 6.0 mi SSE 5.8 mph - 0.38 in   Mostly Cloudy
5:58 AM 59.0 °F 59.0 °F 100% 29.90 in 8.0 mi SSE 3.5 mph - N/A   Mostly Cloudy
6:11 AM 57.2 °F 57.2 °F 100% 29.90 in 4.0 mi Calm Calm - N/A   Mostly Cloudy
6:14 AM 57.2 °F 57.2 °F 100% 29.89 in 5.0 mi Calm Calm - N/A   Mostly Cloudy
6:17 AM 57.2 °F 57.2 °F 100% 29.89 in 6.0 mi ESE 3.5 mph - N/A   Light Drizzle
6:42 AM 59.0 °F 59.0 °F 100% 29.90 in 9.0 mi SE 3.5 mph - N/A Rain Light Rain
6:45 AM 59.0 °F 59.0 °F 100% 29.90 in 8.0 mi SE 3.5 mph - N/A Rain Light Rain
6:55 AM 58.6 °F 58.6 °F 100% 29.90 in 10.0 mi Calm Calm - 0.03 in   Light Drizzle
7:04 AM 59.0 °F 59.0 °F 100% 29.91 in 10.0 mi South 5.8 mph - N/A   Overcast
7:09 AM 59.0 °F 59.0 °F 100% 29.91 in 10.0 mi SSW 8.1 mph - N/A   Light Drizzle
7:17 AM 59.0 °F 59.0 °F 100% 29.91 in 8.0 mi SW 4.6 mph - N/A   Light Drizzle
7:26 AM 59.0 °F 59.0 °F 100% 29.91 in 6.0 mi SW 3.5 mph - N/A   Light Drizzle
7:33 AM 59.0 °F 59.0 °F 100% 29.91 in 5.0 mi SSW 3.5 mph - N/A   Overcast
7:34 AM 59.0 °F 59.0 °F 100% 29.91 in 5.0 mi South 3.5 mph - N/A   Overcast
7:38 AM 59.0 °F 59.0 °F 100% 29.91 in 6.0 mi SSW 4.6 mph - N/A   Light Drizzle
7:42 AM 59.0 °F 59.0 °F 100% 29.91 in 7.0 mi South 4.6 mph - N/A   Light Drizzle
7:47 AM 59.0 °F 59.0 °F 100% 29.91 in 9.0 mi SSW 3.5 mph - N/A   Overcast
7:55 AM 58.5 °F 58.5 °F 100% 29.91 in 10.0 mi SSW 3.5 mph - 0.00 in   Overcast
8:55 AM 59.0 °F 59.0 °F 100% 29.92 in 10.0 mi South 4.6 mph - 0.04 in Rain Light Rain
9:00 AM 59.0 °F 59.0 °F 100% 29.92 in 10.0 mi Variable 3.5 mph - N/A   Drizzle
9:17 AM 59.0 °F 59.0 °F 100% 29.91 in 10.0 mi South 8.1 mph - N/A   Light Drizzle
9:20 AM 59.0 °F 59.0 °F 100% 29.91 in 10.0 mi South 9.2 mph - N/A   Scattered Clouds
9:43 AM 60.8 °F 60.8 °F 100% 29.91 in 10.0 mi South 8.1 mph - N/A   Scattered Clouds
9:55 AM 60.8 °F 60.8 °F 100% 29.91 in 10.0 mi South 9.2 mph - 0.01 in   Scattered Clouds
10:55 AM 62.2 °F 62.2 °F 100% 29.88 in 10.0 mi South 8.1 mph - N/A   Mostly Cloudy
11:55 AM 63.7 °F 63.7 °F 100% 29.86 in 10.0 mi SSW 12.7 mph - N/A   Partly Cloudy
11:57 AM 64.4 °F 64.4 °F 100% 29.86 in 10.0 mi SSW 11.5 mph - N/A   Light Drizzle
12:20 PM 62.6 °F 62.6 °F 100% 29.86 in 10.0 mi SW 18.4 mph - N/A   Mostly Cloudy
12:21 PM 62.6 °F 62.6 °F 100% 29.86 in 10.0 mi SW 17.3 mph - N/A Rain Light Rain
12:48 PM 62.6 °F 62.6 °F 100% 29.84 in 10.0 mi SW 13.8 mph - N/A   Mostly Cloudy
12:55 PM 63.7 °F 63.7 °F 100% 29.84 in 10.0 mi SSW 12.7 mph - 0.02 in   Scattered Clouds
1:18 PM 64.4 °F 64.4 °F 100% 29.86 in 10.0 mi SW 16.1 mph - N/A   Light Drizzle
1:19 PM 64.4 °F 64.4 °F 100% 29.86 in 10.0 mi SW 17.3 mph - N/A   Light Drizzle
1:49 PM 62.6 °F 62.6 °F 100% 29.83 in 10.0 mi South 12.7 mph 20.7 mph N/A   Mostly Cloudy
1:55 PM 62.8 °F 62.8 °F 100% 29.83 in 10.0 mi South 13.8 mph - 0.03 in Rain Light Rain
2:09 PM 62.6 °F 62.6 °F 100% 29.83 in 10.0 mi SSW 15.0 mph 24.2 mph N/A   Mostly Cloudy
2:18 PM 62.6 °F 62.6 °F 100% 29.84 in 10.0 mi SSW 15.0 mph - N/A   Light Drizzle
2:21 PM 62.6 °F 62.6 °F 100% 29.84 in 10.0 mi SW 12.7 mph - N/A   Light Drizzle
2:23 PM 62.6 °F 62.6 °F 100% 29.84 in 9.0 mi SSW 12.7 mph - N/A   Light Drizzle
2:25 PM 62.6 °F 62.6 °F 100% 29.83 in 8.0 mi SSW 13.8 mph - N/A Rain Light Rain
2:31 PM 62.6 °F 62.6 °F 100% 29.83 in 8.0 mi SSW 12.7 mph - N/A   Overcast
2:32 PM 62.6 °F 62.6 °F 100% 29.83 in 8.0 mi South 11.5 mph - N/A Rain Light Rain
2:42 PM 60.8 °F 60.8 °F 100% 29.84 in 8.0 mi SSW 13.8 mph - N/A Rain Light Rain
2:55 PM 60.8 °F 60.8 °F 100% 29.83 in 8.0 mi SSW 11.5 mph - 0.07 in Rain Light Rain
3:09 PM 60.8 °F 60.8 °F 100% 29.82 in 10.0 mi South 8.1 mph - N/A   Overcast
3:55 PM 61.7 °F 61.7 °F 100% 29.81 in 10.0 mi SSE 5.8 mph - 0.01 in   Scattered Clouds
4:55 PM 61.7 °F 61.7 °F 100% 29.79 in 10.0 mi South 5.8 mph - N/A   Mostly Cloudy
5:46 PM 60.8 °F 60.8 °F 100% 29.80 in 10.0 mi SSW 8.1 mph - N/A   Light Drizzle
5:50 PM 62.6 °F 62.6 °F 100% 29.80 in 10.0 mi SSW 10.4 mph - N/A   Light Drizzle
5:55 PM 62.6 °F 62.6 °F 100% 29.79 in 10.0 mi SSW 10.4 mph - 0.00 in Rain Light Rain
6:01 PM 62.6 °F 62.6 °F 100% 29.80 in 9.0 mi SSW 12.7 mph - N/A Rain , Thunderstorm Light Rain
6:18 PM 62.6 °F 62.6 °F 100% 29.79 in 10.0 mi South 10.4 mph - N/A   Overcast
6:21 PM 62.6 °F 62.6 °F 100% 29.78 in 10.0 mi South 11.5 mph - N/A   Light Drizzle
6:42 PM 62.6 °F 62.6 °F 100% 29.76 in 10.0 mi South 11.5 mph - N/A   Scattered Clouds
6:55 PM 62.6 °F 62.2 °F 99% 29.76 in 10.0 mi South 15.0 mph - 0.08 in   Partly Cloudy
7:15 PM 62.6 °F 62.6 °F 100% 29.77 in 10.0 mi SSW 10.4 mph - N/A   Light Drizzle
7:25 PM 62.6 °F 62.6 °F 100% 29.76 in 10.0 mi South 11.5 mph - N/A   Mostly Cloudy
7:34 PM 62.6 °F 62.6 °F 100% 29.78 in 10.0 mi SSW 11.5 mph - N/A Rain Light Rain
7:44 PM 60.8 °F 60.8 °F 100% 29.77 in 9.0 mi SSW 9.2 mph - N/A Rain Light Rain
7:46 PM 60.8 °F 60.8 °F 100% 29.77 in 8.0 mi SSW 9.2 mph - N/A Rain Light Rain
7:55 PM 61.5 °F 61.5 °F 100% 29.77 in 3.0 mi SSW 12.7 mph - 0.09 in Rain Rain
8:05 PM 60.8 °F 60.8 °F 100% 29.76 in 5.0 mi SSW 11.5 mph - N/A Rain Light Rain
8:15 PM 62.6 °F 62.6 °F 100% 29.77 in 9.0 mi SSW 11.5 mph - N/A Rain , Thunderstorm Light Rain
8:26 PM 62.6 °F 62.6 °F 100% 29.76 in 6.0 mi SSW 13.8 mph - N/A Rain , Thunderstorm Light Rain
8:37 PM 60.8 °F 60.8 °F 100% 29.76 in 5.0 mi SSW 15.0 mph - N/A Rain Rain
8:40 PM 60.8 °F 60.8 °F 100% 29.76 in 5.0 mi South 12.7 mph - N/A Rain Light Rain
8:50 PM 60.8 °F 60.8 °F 100% 29.76 in 9.0 mi SSW 11.5 mph - N/A Rain Light Rain
8:53 PM 60.8 °F 60.8 °F 100% 29.76 in 9.0 mi SSW 11.5 mph - N/A Rain Light Rain
8:55 PM 61.5 °F 61.5 °F 100% 29.76 in 10.0 mi SSW 10.4 mph - 0.15 in   Light Drizzle
9:06 PM 60.8 °F 60.8 °F 100% 29.76 in 10.0 mi SSW 13.8 mph - N/A   Mostly Cloudy
9:07 PM 60.8 °F 60.8 °F 100% 29.76 in 9.0 mi SSW 12.7 mph - N/A   Mostly Cloudy
9:08 PM 60.8 °F 60.8 °F 100% 29.76 in 8.0 mi SSW 12.7 mph - N/A Rain Heavy Rain
9:18 PM 60.8 °F 60.8 °F 100% 29.76 in 9.0 mi SSW 16.1 mph 21.9 mph N/A   Mostly Cloudy
9:28 PM 60.8 °F 60.8 °F 100% 29.76 in 10.0 mi SSW 13.8 mph - N/A   Light Drizzle
9:43 PM 60.8 °F 60.8 °F 100% 29.78 in 10.0 mi WNW 9.2 mph - N/A   Light Drizzle
9:45 PM 60.8 °F 60.8 °F 100% 29.78 in 10.0 mi WNW 9.2 mph - N/A Thunderstorm Light Drizzle
9:49 PM 60.8 °F 60.8 °F 100% 29.77 in 10.0 mi WNW 5.8 mph - N/A Thunderstorm Overcast
9:50 PM 60.8 °F 60.8 °F 100% 29.77 in 10.0 mi Variable 5.8 mph - N/A Thunderstorm Overcast
9:55 PM 61.3 °F 61.3 °F 100% 29.78 in 10.0 mi WNW 6.9 mph - 0.03 in Thunderstorm Overcast
9:59 PM 60.8 °F 60.8 °F 100% 29.79 in 6.0 mi West 10.4 mph - N/A Rain Light Rain
10:03 PM 60.8 °F 60.8 °F 100% 29.78 in 1.8 mi West 9.2 mph - N/A Rain Heavy Rain
10:06 PM 60.8 °F 60.8 °F 100% 29.77 in 1.2 mi West 9.2 mph - N/A Rain Heavy Rain
10:09 PM 60.8 °F 60.8 °F 100% 29.78 in 1.5 mi West 11.5 mph - N/A Rain Light Rain
10:12 PM 60.8 °F 60.8 °F 100% 29.78 in 2.0 mi WSW 12.7 mph - N/A Rain Rain
10:14 PM 60.8 °F 60.8 °F 100% 29.78 in 3.0 mi West 10.4 mph - N/A Rain , Thunderstorm Heavy Rain
10:15 PM 59.0 °F 59.0 °F 100% 29.78 in 3.0 mi West 10.4 mph - N/A Rain , Thunderstorm Heavy Rain
10:17 PM 59.0 °F 59.0 °F 100% 29.77 in 2.0 mi West 9.2 mph - N/A Rain , Thunderstorm Heavy Rain
10:25 PM 59.0 °F 59.0 °F 100% 29.78 in 3.0 mi West 10.4 mph - N/A Rain , Thunderstorm Rain
10:29 PM 59.0 °F 59.0 °F 100% 29.78 in 4.0 mi WSW 9.2 mph - N/A Rain , Thunderstorm Thunderstorms and Rain
10:30 PM 59.0 °F 59.0 °F 100% 29.78 in 4.0 mi WSW 10.4 mph - N/A Rain , Thunderstorm Thunderstorms and Rain
10:44 PM 59.0 °F 59.0 °F 100% 29.76 in 6.0 mi West 4.6 mph - N/A Rain Rain
10:49 PM 59.0 °F 59.0 °F 100% 29.76 in 6.0 mi WSW 6.9 mph - N/A Rain Rain
10:52 PM 59.0 °F 59.0 °F 100% 29.76 in 6.0 mi WSW 6.9 mph - N/A Rain Light Rain
10:55 PM 58.8 °F 58.8 °F 100% 29.78 in 8.0 mi SW 10.4 mph - 0.30 in Rain Light Rain
11:00 PM 59.0 °F 59.0 °F 100% 29.78 in 10.0 mi SW 10.4 mph - N/A Rain Light Rain
11:01 PM 59.0 °F 59.0 °F 100% 29.78 in 10.0 mi SW 11.5 mph - N/A Rain Light Rain
11:10 PM 59.0 °F 59.0 °F 100% 29.78 in 9.0 mi SW 9.2 mph - N/A Rain Rain
11:25 PM 59.0 °F 59.0 °F 100% 29.78 in 10.0 mi SW 5.8 mph - N/A Rain Light Rain
11:28 PM 59.0 °F 59.0 °F 100% 29.78 in 10.0 mi SW 6.9 mph - N/A Rain Light Rain
11:34 PM 59.0 °F 59.0 °F 100% 29.77 in 9.0 mi SW 5.8 mph - N/A Rain Light Rain
11:38 PM 59.0 °F 59.0 °F 100% 29.77 in 7.0 mi SSW 4.6 mph - N/A Rain Light Rain
11:41 PM 59.0 °F 59.0 °F 100% 29.77 in 6.0 mi SSW 6.9 mph - N/A Rain Rain
11:48 PM 59.0 °F 59.0 °F 100% 29.77 in 6.0 mi Calm Calm - N/A Rain Light Rain
11:50 PM 59.0 °F 59.0 °F 100% 29.76 in 6.0 mi Calm Calm - N/A Rain Rain
11:53 PM 59.0 °F 59.0 °F 100% 29.76 in 5.0 mi Calm Calm - N/A Rain Rain
11:55 PM 58.1 °F 58.1 °F 100% 29.77 in 5.0 mi Calm Calm - 0.08 in Rain Light Rain